(14294) = 1994 SD10 = 3306 T-1

Discovered at Palomar on 1971-03-26 by C. J. van Houten, I. van Houten-Groeneveld, and T. Gehrels.

Orbit

Orbit type: Main Belt

Note: WebGL enabled browser required.

epoch2023-09-13.0
epoch JD2460200.5
perihelion date2020-02-07.03385
perihelion JD2458886.53385
argument of perihelion (°)137.29603
ascending node (°)167.55642
inclination (°)2.47307
eccentricity0.2089678
perihelion distance (AU)1.8878494
Tisserand w.r.t. Jupiter3.5
ΔV w.r.t. Earth (km/sec)8.6
semimajor axis (AU)2.3865644
mean anomaly (°)351.25966
mean daily motion (°/day)0.26732780
aphelion distance (AU)2.885
period (years)3.69
P-vector [x]0.57160120
P-vector [y]-0.76398486
P-vector [z]-0.29933127
Q-vector [x]0.82047890
Q-vector [y]0.53630902
Q-vector [z]0.19795709
absolute magnitude15.35
phase slope0.15
uncertainty0
referenceMPEC 2024-A48
observations used1909
oppositions22
arc length (days)19144
first opposition used1971
last opposition used2023
residual rms (arc-secs)0.68
perturbers coarse indicatorM-v
perturbers precise indicator003Ek
first observation date used1971-03-24.0
last observation date used2023-08-22.0
computer nameMPCLINUX
JD of orbit computation2456731.534447
perihelion JD uncertainty (days)3.6765E-05
argument of perihelion uncertainty (°)6.4562E-05
ascending node uncertainty (°)6.3901E-05
inclination uncertainty (°)4.2160E-06
eccentricity uncertainty 2.9654E-08
perihelion distance uncertainty (AU)7.1632E-08
Minimum Orbit Intersection Distances (in AU)
for orbit epoch: 2460200.5, reference: E2024-A48
Mercury1.45236
Venus1.16286
Earth0.8731
Mars0.49093
Jupiter2.35395
Saturn6.22183
Uranus15.6475
Neptune27.2827

Observations

1959 total observations over interval: 1971 03 24.42015 – 2023 08 22.105770
These data are available for download (format description).

Date (UT) J2000 RA J2000 Dec Magn Location Ref
1971 03 24.42015 12 43 19.15 -03 08 43.0   675 – Palomar Mountain MPC 24160
1971 03 25.33090 12 42 30.16 -03 02 26.6   675 – Palomar Mountain MPC 24160
1971 03 26.29653 12 41 37.77 -02 55 44.1   675 – Palomar Mountain MPC 24160
1971 03 26.33611 12 41 35.58 -02 55 26.1 20.1   675 – Palomar Mountain MPC 24160
1971 03 27.33854 12 40 40.51 -02 48 28.1   675 – Palomar Mountain MPC 24160
1971 04 02.42604 12 34 59.75 -02 05 21.1   675 – Palomar Mountain MPC 24160
1994 09 28.37647 00 45 45.59 +03 06 29.6 17.1 V 691 – Steward Observatory, Kitt Peak-Spacewatch MPC 24184
1994 09 28.39966 00 45 44.31 +03 06 19.2   691 – Steward Observatory, Kitt Peak-Spacewatch MPC 24184
1994 09 28.42280 00 45 43.02 +03 06 09.1   691 – Steward Observatory, Kitt Peak-Spacewatch MPC 24184
1994 10 01.33837 00 43 06.84 +02 44 47.1 17.0 V 675 – Palomar Mountain MPC 27651
1994 10 04.33880 00 40 25.72 +02 22 59.3 17.1 V 691 – Steward Observatory, Kitt Peak-Spacewatch MPC 24184
1994 10 04.36212 00 40 24.40 +02 22 49.1   691 – Steward Observatory, Kitt Peak-Spacewatch MPC 24184
1994 10 12.19175 00 33 41.53 +01 29 16.9 17.5 V 691 – Steward Observatory, Kitt Peak-Spacewatch MPC 24184
1994 10 12.21522 00 33 40.33 +01 29 07.3   691 – Steward Observatory, Kitt Peak-Spacewatch MPC 24184
1994 10 12.23840 00 33 39.15 +01 28 58.3   691 – Steward Observatory, Kitt Peak-Spacewatch MPC 24184
1995 12 18.36477 08 29 36.88 +16 05 51.2   691 – Steward Observatory, Kitt Peak-Spacewatch MPC 26534
1995 12 18.38664 08 29 36.13 +16 05 53.6 19.9 V 691 – Steward Observatory, Kitt Peak-Spacewatch MPC 26534
1995 12 18.40829 08 29 35.39 +16 05 55.9   691 – Steward Observatory, Kitt Peak-Spacewatch MPC 26534
1995 12 28.26593 08 23 00.00 +16 26 19.1   691 – Steward Observatory, Kitt Peak-Spacewatch MPC 26534
1995 12 28.29292 08 22 58.69 +16 26 23.3 20.0 V 691 – Steward Observatory, Kitt Peak-Spacewatch MPC 26534
1995 12 28.31996 08 22 57.38 +16 26 27.6   691 – Steward Observatory, Kitt Peak-Spacewatch MPC 26534
1995 12 28.39557 08 22 53.70 +16 26 39.2 20.7 V 691 – Steward Observatory, Kitt Peak-Spacewatch MPC 26534
1995 12 28.41734 08 22 52.70 +16 26 43.3   691 – Steward Observatory, Kitt Peak-Spacewatch MPC 26534
1995 12 28.44301 08 22 51.40 +16 26 45.9   691 – Steward Observatory, Kitt Peak-Spacewatch MPC 26534
1998 10 29.40460 04 01 41.66 +17 00 52.6 19.5   704 – Lincoln Laboratory ETS, New Mexico MPS 2905
1998 10 29.42455 04 01 40.40 +17 00 46.6 18.8   704 – Lincoln Laboratory ETS, New Mexico MPS 2905
1998 10 29.44488 04 01 39.49 +17 00 43.0 18.8   704 – Lincoln Laboratory ETS, New Mexico MPS 2905
1998 10 29.46521 04 01 38.38 +17 00 37.9 19.4   704 – Lincoln Laboratory ETS, New Mexico MPS 2905
1998 10 29.48531 04 01 37.24 +17 00 33.5 19.0   704 – Lincoln Laboratory ETS, New Mexico MPS 2905
1998 11 11.36087 03 49 03.45 +16 11 05.5 18.6 R 699 – Lowell Observatory-LONEOS MPS 3216
1998 11 11.38590 03 49 01.76 +16 11 00.8   699 – Lowell Observatory-LONEOS MPS 3216
1998 11 11.40828 03 49 00.40 +16 10 53.8   699 – Lowell Observatory-LONEOS MPS 3216
1998 11 16.47336 03 43 34.54 +15 50 54.1 19.3 V 566 – Haleakala-NEAT/GEODSS MPS 3216
1998 11 16.48389 03 43 33.83 +15 50 51.2 19.3 V 566 – Haleakala-NEAT/GEODSS MPS 3216
1998 11 16.49432 03 43 33.12 +15 50 48.6 19.0 V 566 – Haleakala-NEAT/GEODSS MPS 3216
1998 11 18.25817 03 41 39.33 +15 43 57.3 18.1   704 – Lincoln Laboratory ETS, New Mexico MPS 3216
1998 11 18.30282 03 41 36.35 +15 43 45.1 18.6   704 – Lincoln Laboratory ETS, New Mexico MPS 3216
1998 11 18.34729 03 41 33.44 +15 43 34.9 18.1   704 – Lincoln Laboratory ETS, New Mexico MPS 3216
1998 11 18.39229 03 41 30.40 +15 43 24.3 18.5   704 – Lincoln Laboratory ETS, New Mexico MPS 3216
1998 11 18.43678 03 41 27.47 +15 43 15.4 18.8   704 – Lincoln Laboratory ETS, New Mexico MPS 3216
1998 11 21.24516 03 38 27.21 +15 32 32.6 18.2   704 – Lincoln Laboratory ETS, New Mexico MPS 3216
1998 11 21.28313 03 38 24.86 +15 32 24.7 17.8   704 – Lincoln Laboratory ETS, New Mexico MPS 3216
1998 11 21.32039 03 38 22.30 +15 32 14.9 18.3   704 – Lincoln Laboratory ETS, New Mexico MPS 3216
1998 11 21.39514 03 38 17.29 +15 32 01.7 18.5   704 – Lincoln Laboratory ETS, New Mexico MPS 3216
1998 11 23.29532 03 36 17.34 +15 24 56.3 18.2 R 699 – Lowell Observatory-LONEOS MPS 3487
1998 11 23.32078 03 36 15.72 +15 24 51.3   699 – Lowell Observatory-LONEOS MPS 3487
1998 11 23.34623 03 36 14.00 +15 24 47.0   699 – Lowell Observatory-LONEOS MPS 3487
1998 11 24.18710 03 35 21.65 +15 21 41.8 18.5   704 – Lincoln Laboratory ETS, New Mexico MPS 3216
1998 11 24.23547 03 35 18.48 +15 21 33.3 19.2   704 – Lincoln Laboratory ETS, New Mexico MPS 3216
1998 11 24.28332 03 35 15.58 +15 21 20.3 19.4   704 – Lincoln Laboratory ETS, New Mexico MPS 3216
1998 11 24.33165 03 35 12.33 +15 21 11.0 19.2   704 – Lincoln Laboratory ETS, New Mexico MPS 3216
2000 02 02.27671 09 54 06.36 +11 01 43.7 19.1 V 691 – Steward Observatory, Kitt Peak-Spacewatch MPS 10447
2000 02 02.30003 09 54 05.06 +11 01 50.9 19.1 V 691 – Steward Observatory, Kitt Peak-Spacewatch MPS 10447
2000 02 02.32141 09 54 03.88 +11 01 57.8 19.1 V 691 – Steward Observatory, Kitt Peak-Spacewatch MPS 10447
2000 02 02.32495 09 54 03.69 +11 02 00.3 18.7   704 – Lincoln Laboratory ETS, New Mexico MPS 10447
2000 02 02.35292 09 54 02.20 +11 02 07.9 19.7   704 – Lincoln Laboratory ETS, New Mexico MPS 10447
2000 02 02.36695 09 54 01.37 +11 02 12.5 19.6   704 – Lincoln Laboratory ETS, New Mexico MPS 10447
2000 02 02.38103 09 54 00.59 +11 02 17.0 19.0   704 – Lincoln Laboratory ETS, New Mexico MPS 10447
2000 02 06.25271 09 50 27.61 +11 22 58.6 19.5   704 – Lincoln Laboratory ETS, New Mexico MPS 10447
2000 02 06.26761 09 50 26.90 +11 23 02.8 19.5   704 – Lincoln Laboratory ETS, New Mexico MPS 10447
2000 02 06.28255 09 50 25.97 +11 23 09.6 19.8   704 – Lincoln Laboratory ETS, New Mexico MPS 10447
2000 02 06.29746 09 50 25.06 +11 23 15.3 19.5   704 – Lincoln Laboratory ETS, New Mexico MPS 10447
2000 02 08.39631 09 48 25.83 +11 34 46.1 18.8   704 – Lincoln Laboratory ETS, New Mexico MPS 10447
2000 02 08.42986 09 48 23.67 +11 34 58.6 19.4   704 – Lincoln Laboratory ETS, New Mexico MPS 10447
2000 02 08.44667 09 48 22.81 +11 35 03.8 19.1   704 – Lincoln Laboratory ETS, New Mexico MPS 10447
2000 02 08.46362 09 48 21.76 +11 35 10.7 19.6   704 – Lincoln Laboratory ETS, New Mexico MPS 10447
2000 02 11.18174 09 45 45.16 +11 50 23.8 18.6 V 691 – Steward Observatory, Kitt Peak-Spacewatch MPS 10447
2000 02 11.20339 09 45 43.88 +11 50 31.3 18.4 V 691 – Steward Observatory, Kitt Peak-Spacewatch MPS 10447
2000 02 11.22469 09 45 42.61 +11 50 38.7 18.4 V 691 – Steward Observatory, Kitt Peak-Spacewatch MPS 10447
2000 02 26.21092 09 31 22.16 +13 14 05.7 19.0 V 691 – Steward Observatory, Kitt Peak-Spacewatch MPS 11502
2000 02 26.23250 09 31 20.96 +13 14 12.7 18.9 V 691 – Steward Observatory, Kitt Peak-Spacewatch MPS 11502
2000 02 26.25416 09 31 19.75 +13 14 19.6 18.9 V 691 – Steward Observatory, Kitt Peak-Spacewatch MPS 11502
2000 02 29.11226 09 28 47.61 +13 29 10.3 19.0   704 – Lincoln Laboratory ETS, New Mexico MPS 11502
2000 02 29.13915 09 28 46.21 +13 29 18.8 19.4   704 – Lincoln Laboratory ETS, New Mexico MPS 11502
2000 02 29.15260 09 28 45.43 +13 29 22.5 19.2   704 – Lincoln Laboratory ETS, New Mexico MPS 11502
2000 02 29.16607 09 28 44.72 +13 29 27.6 19.4   704 – Lincoln Laboratory ETS, New Mexico MPS 11502
2000 03 03.12600 09 26 14.52 +13 44 10.5 19.0   704 – Lincoln Laboratory ETS, New Mexico MPS 11502
2000 03 03.13932 09 26 13.90 +13 44 13.8 19.6   704 – Lincoln Laboratory ETS, New Mexico MPS 11502
2000 03 03.15265 09 26 13.27 +13 44 19.8 19.6   704 – Lincoln Laboratory ETS, New Mexico MPS 11502
2000 03 03.16597 09 26 12.53 +13 44 22.8 18.9   704 – Lincoln Laboratory ETS, New Mexico MPS 11502
2000 03 03.17930 09 26 11.84 +13 44 26.5 18.7   704 – Lincoln Laboratory ETS, New Mexico MPS 11502
2000 03 05.24099 09 24 32.37 +13 54 15.1 19.2   704 – Lincoln Laboratory ETS, New Mexico MPS 11502
2000 03 05.25428 09 24 31.85 +13 54 18.7 19.5   704 – Lincoln Laboratory ETS, New Mexico MPS 11502
2000 03 05.28086 09 24 30.49 +13 54 26.8 19.3   704 – Lincoln Laboratory ETS, New Mexico MPS 11502
